Wind_Speed
10 11 11 12 13 15 16 16 17 18 19 19 20 18 14 13 14 15 18 24 28 29 29 24 14 13 13 8 8 6 7 6 6 4 5 10 16 17 17 21 23 32 23 27 21 9 26
10 10 11 12 14 16 16 17 17 18 19 20 20 19 15 12 12 13 16 23 25 28 26 27 16 14 11 9 9 7 7 7 6 4 6 3 8 15 17 20 22 11 22 11 21 14 17
8 9 10 12 14 15 16 16 18 19 20 20 21 20 17 13 11 11 13 18 25 29 28 26 16 13 13 11 11 9 7 9 4 6 3 4 6 16 17 20 20 20 17 12 27 17 13
8 8 9 11 13 14 15 16 18 19 20 21 21 21 19 14 10 10 10 12 23 28 27 26 18 13 15 11 11 10 7 9 7 9 5 7 6 8 14 6 17 19 18 15 22 13 13
7 8 9 11 12 14 15 16 17 19 20 21 22 22 20 16 11 9 9 9 13 23 27 27 20 17 17 16 13 10 6 6 7 9 5 2 9 9 10 14 19 21 11 13 12 13 16
7 8 9 10 12 14 15 16 17 18 20 21 21 21 20 18 13 9 8 9 7 18 22 25 30 14 17 17 13 8 10 8 8 7 8 14 17 13 15 17 5 9 14 13 13 13 17
7 8 9 10 10 12 14 15 17 18 20 21 21 22 21 18 14 10 9 7 5 11 20 21 24 26 24 21 17 16 9 6 9 12 12 13 12 11 12 12 9 12 12 11 11 11 11
6 7 9 9 9 10 12 14 15 17 19 21 21 22 21 19 15 11 9 6 5 5 17 19 18 23 21 23 19 23 20 13 8 12 8 11 9 9 8 7 9 10 6 16 10 15 10
5 7 8 10 10 9 10 13 14 16 18 20 21 21 22 20 16 13 9 6 5 1 10 18 15 19 21 18 18 18 19 17 17 12 10 10 7 5 8 6 3 5 6 12 11 17 11
4 6 8 9 10 10 10 11 13 15 16 18 19 21 21 21 18 15 10 8 6 1 3 12 15 14 17 13 15 13 17 17 16 14 10 8 7 6 7 6 6 11 9 9 12 15 10
3 5 7 8 10 11 12 12 13 14 16 17 17 18 20 20 19 15 12 9 7 5 4 11 14 11 12 15 14 12 12 14 14 16 14 9 9 6 7 5 8 9 12 15 13 15 12
4 5 6 8 9 11 12 12 13 14 14 16 16 16 17 19 19 15 13 8 9 3 4 9 10 13 11 12 13 12 9 10 11 9 10 14 6 9 1 8 6 7 13 10 10 13 3
5 6 7 8 10 11 11 12 12 13 14 14 15 14 15 16 17 16 12 9 3 5 7 6 8 10 12 11 11 10 10 7 9 8 14 8 9 7 4 7 6 7 16 4 2 1 4
9 8 9 10 10 11 11 11 11 11 13 13 13 13 14 14 15 15 11 6 5 4 6 5 6 7 9 7 9 10 8 4 7 8 8 11 5 8 8 5 5 7 4 1 4 3 3
13 12 11 11 12 12 11 11 10 10 11 11 12 12 12 13 11 12 11 7 4 5 6 6 3 5 8 7 5 5 6 7 3 3 3 3 6 10 8 5 4 3 4 5 3 2 1
17 15 15 13 14 14 13 12 11 9 8 9 10 11 11 12 10 11 10 8 6 7 6 6 5 5 7 6 4 5 4 6 4 3 1 2 3 6 8 6 4 2 3 2 3 1 2
22 19 18 16 15 15 15 13 12 10 8 7 8 10 11 13 10 9 8 7 7 7 6 5 5 5 5 5 5 5 5 3 3 3 2 3 2 4 2 3 1 2 4 3 2 0 3
26 23 21 19 18 17 16 15 13 12 10 8 6 6 8 14 8 9 10 8 5 6 5 5 5 4 4 2 4 3 3 3 5 3 2 2 3 4 5 6 7 8 6 5 3 2 1
29 27 24 22 21 20 19 18 16 14 12 11 8 7 8 13 5 14 12 8 6 4 4 4 4 4 4 3 0 3 2 2 3 2 3 5 3 3 3 6 8 6 6 6 4 3 2
33 30 28 25 24 23 21 20 18 17 14 12 11 8 12 15 12 18 14 12 8 6 6 4 5 4 5 4 3 2 2 3 3 3 3 4 6 7 6 4 5 5 4 6 8 4 3
36 34 31 29 26 25 23 21 20 18 16 15 13 12 15 16 19 19 17 15 13 10 9 7 6 5 5 5 7 4 4 5 5 3 2 4 7 9 10 11 13 13 12 12 11 11 7
40 37 34 31 29 26 25 24 22 21 18 17 16 18 22 21 21 20 18 17 13 13 12 10 10 8 8 7 8 10 10 9 5 6 7 9 6 11 12 10 11 15 13 15 17 17 20
42 39 36 32 30 29 26 25 24 22 22 21 20 22 24 26 24 21 20 17 16 15 15 15 13 12 11 10 11 11 12 13 15 16 14 11 6 8 4 5 11 15 4 8 6 9 11
43 40 37 35 31 30 29 28 26 24 23 21 20 21 24 26 25 20 21 19 19 18 18 15 15 16 12 12 12 14 15 15 15 16 15 13 11 8 8 9 2 2 5 6 9 8 8
43 42 39 35 33 33 31 29 29 25 22 20 19 19 21 24 22 20 19 20 19 19 19 19 18 18 17 14 14 10 9 10 8 9 10 11 11 5 5 6 15 17 14 10 5 7 8
44 43 40 36 37 37 33 33 31 26 23 24 21 20 20 21 21 17 17 18 19 19 18 18 18 16 16 16 10 6 4 4 4 4 6 8 9 10 5 3 4 5 4 4 8 15 9
46 45 43 42 41 40 38 36 33 30 27 26 22 22 21 21 22 19 16 15 15 14 14 13 14 14 14 14 14 11 10 10 6 5 5 8 10 16 15 9 10 15 15 12 3 3 7
48 47 45 43 44 42 40 38 35 32 29 26 25 22 24 24 22 20 18 17 15 15 15 14 13 16 14 14 11 10 10 9 10 12 8 7 6 7 8 8 10 7 7 10 15 17 20
48 45 43 43 44 44 41 39 37 36 33 29 27 27 27 30 23 17 15 15 17 18 19 19 18 13 7 8 8 7 9 10 13 12 18 17 19 15 13 13 22 26 28 29 27 26 26
Wind_Direction
74 63 55 48 44 40 30 24 21 19 19 14 10 4 356 354 2 3 7 15 17 17 14 5 14 4 3 15 11 3 359 356 351 336 291 219 214 205 217 223 233 216 225 233 199 171 212
69 63 54 44 40 37 28 21 18 17 17 13 10 5 356 349 352 357 360 13 13 13 4 10 3 9 17 30 19 5 347 15 18 26 290 268 215 210 215 224 226 243 218 239 200 198 216
64 54 50 45 39 32 26 19 15 15 14 13 9 4 360 349 345 352 0 12 19 19 8 6 17 27 27 32 26 12 12 29 53 46 82 222 219 217 211 219 223 225 226 209 191 193 192
57 42 37 38 35 31 26 16 15 13 12 11 9 3 1 353 343 343 353 9 22 22 19 18 18 22 23 31 20 28 37 46 30 38 5 196 196 220 225 263 215 212 197 210 192 193 204
53 40 33 32 28 26 25 17 13 13 11 10 8 3 1 357 349 344 347 359 11 20 24 28 18 25 28 16 14 39 54 34 12 4 15 163 211 216 213 191 158 180 193 175 185 200 204
48 38 27 27 27 24 22 18 12 12 11 9 7 3 2 359 355 349 351 1 15 18 25 32 28 30 26 18 21 55 54 32 32 24 95 79 121 99 58 140 180 162 161 171 182 184 203
40 29 24 21 22 24 23 19 12 10 10 9 6 2 2 2 2 359 357 2 19 29 25 32 36 38 32 34 49 42 29 47 65 83 107 89 97 83 75 101 148 134 175 165 174 179 199
40 27 24 16 16 19 22 19 14 10 10 9 6 2 1 4 5 6 2 1 15 40 32 31 34 32 24 35 53 42 60 64 71 81 70 92 53 53 97 130 156 183 195 197 171 165 176
25 21 18 11 8 10 11 13 12 7 8 9 6 3 360 3 4 6 7 8 9 29 34 33 32 33 28 35 46 68 53 75 87 79 86 57 75 110 109 71 4 237 213 195 187 169 163
4 13 8 6 360 356 355 1 6 4 2 7 8 3 360 1 5 6 8 10 9 4 28 28 24 26 35 25 34 58 52 71 84 83 73 51 80 100 26 41 47 125 165 181 181 186 163
335 350 356 355 352 347 345 348 354 2 0 3 8 5 3 2 4 8 8 11 12 35 32 358 14 28 40 34 33 45 61 73 61 64 51 70 103 22 102 30 108 107 184 203 199 183 176
300 324 338 339 341 339 338 343 346 356 1 0 4 6 5 3 5 7 11 9 18 12 20 9 24 24 36 40 40 44 45 83 57 52 46 80 88 86 31 80 122 123 187 179 159 178 165
276 300 318 327 329 328 331 334 343 349 355 360 2 6 6 8 4 8 12 15 11 41 350 3 9 16 33 44 41 41 76 92 64 49 34 65 74 83 56 104 128 135 149 88 26 17 211
264 282 302 313 316 319 321 326 335 345 349 353 2 4 7 9 7 7 14 24 50 18 22 4 11 11 23 19 31 35 30 68 90 65 31 27 36 35 29 60 97 136 116 69 182 189 227
262 275 289 302 308 310 312 315 323 338 350 356 360 1 2 3 9 12 13 30 34 21 14 6 345 342 7 12 9 15 22 36 33 78 77 47 36 24 33 77 65 14 11 334 296 261 267
259 269 281 292 301 304 305 306 309 322 338 353 0 2 1 0 2 12 16 26 32 30 14 17 17 15 8 14 352 352 21 29 32 4 112 99 123 29 35 39 33 35 331 289 253 211 279
260 264 274 284 292 297 298 298 299 305 315 328 349 1 357 2 357 11 17 18 13 15 21 9 13 1 12 5 357 3 349 4 34 58 13 335 232 187 184 153 201 245 252 252 247 200 160
256 262 271 278 284 287 288 290 288 289 297 302 321 338 353 356 354 3 357 350 354 2 357 7 5 10 11 18 21 359 3 355 340 324 246 271 272 276 225 223 225 228 235 247 254 221 128
252 258 264 272 278 281 282 281 282 280 283 284 287 308 328 345 329 336 331 325 314 316 329 335 340 352 2 11 225 17 343 326 323 340 317 311 239 267 288 265 254 255 253 254 267 283 236
251 257 262 266 272 274 274 272 275 278 278 276 280 293 309 320 320 323 314 303 284 283 280 275 294 314 327 307 325 317 349 328 297 283 280 275 262 254 254 280 252 252 270 260 244 238 234
252 254 259 263 264 268 267 265 266 269 273 275 281 293 304 306 313 310 300 285 278 267 259 259 257 270 291 300 312 297 314 325 307 267 270 286 270 259 264 271 274 272 265 258 250 253 253
250 253 255 258 261 262 263 260 260 261 263 267 282 294 294 302 307 302 289 282 262 256 254 254 252 251 262 272 280 295 303 312 301 278 297 302 281 289 293 266 265 269 263 259 255 253 256
247 250 251 254 254 254 253 252 250 253 258 266 278 288 290 295 298 290 282 267 258 251 250 253 248 243 257 266 271 276 283 287 283 283 290 290 280 305 276 276 294 286 227 232 248 262 257
245 247 246 247 247 248 245 245 246 250 261 271 282 291 291 290 282 279 268 259 251 250 250 255 254 258 262 261 269 277 280 279 275 273 271 264 279 292 288 311 313 206 227 249 300 260 248
241 241 240 241 242 242 241 241 245 250 262 274 285 286 282 279 274 270 266 259 251 248 256 258 259 262 265 268 283 289 282 276 265 251 256 256 249 256 279 297 292 286 271 267 263 294 291
235 237 235 235 238 236 238 240 243 251 260 274 281 279 272 268 271 266 262 260 260 256 256 258 257 259 263 267 266 258 260 274 273 261 237 237 233 226 249 265 254 277 226 252 283 296 272
233 235 234 231 228 232 234 239 244 250 258 266 271 273 265 261 262 259 256 260 259 258 257 262 261 263 264 266 261 259 256 248 254 242 237 231 238 241 240 244 258 263 257 269 258 246 269
229 231 230 229 230 230 231 236 242 248 254 257 260 266 266 256 255 253 250 255 253 257 261 259 269 267 263 257 254 247 240 240 246 244 258 248 237 233 224 229 268 234 223 255 285 282 280
228 228 230 228 229 232 233 239 247 250 253 252 253 259 260 254 248 246 248 256 253 255 257 260 255 253 249 252 241 239 240 243 253 256 263 255 264 264 252 263 279 283 289 294 295 289 290
Height
3164 3163 3162 3161 3159 3157 3155 3153 3149 3146 3142 3139 3136 3133 3130 3128 3125 3122 3119 3114 3109 3103 3098 3092 3087 3084 3082 3080 3078 3076 3074 3072 3070 3068 3069 3068 3071 3075 3077 3079 3079 3082 3087 3091 3097 3100 3103
3165 3164 3163 3162 3159 3157 3155 3153 3150 3146 3143 3139 3135 3132 3130 3127 3125 3122 3118 3114 3109 3104 3098 3093 3088 3085 3083 3080 3078 3076 3074 3071 3070 3069 3069 3069 3071 3073 3075 3077 3080 3081 3085 3089 3095 3098 3100
3166 3165 3164 3162 3159 3158 3156 3153 3150 3147 3143 3139 3135 3132 3129 3126 3124 3121 3118 3115 3110 3105 3099 3093 3089 3085 3084 3081 3078 3076 3074 3071 3070 3070 3069 3070 3070 3072 3074 3076 3078 3082 3085 3088 3091 3095 3098
3166 3166 3165 3162 3160 3158 3156 3154 3150 3147 3143 3140 3136 3132 3128 3125 3122 3120 3118 3115 3111 3106 3100 3095 3089 3086 3084 3081 3079 3077 3075 3073 3072 3070 3069 3069 3070 3071 3072 3076 3078 3082 3084 3086 3089 3092 3096
3166 3165 3164 3163 3161 3159 3156 3154 3151 3147 3144 3140 3136 3132 3128 3125 3121 3119 3117 3115 3112 3108 3103 3097 3092 3087 3085 3082 3080 3077 3076 3073 3072 3071 3068 3067 3069 3071 3073 3074 3077 3080 3082 3086 3090 3091 3094
3166 3165 3164 3163 3161 3159 3157 3154 3151 3148 3144 3140 3136 3132 3128 3124 3121 3118 3116 3114 3113 3110 3105 3098 3094 3091 3088 3084 3080 3078 3077 3074 3073 3071 3071 3068 3069 3069 3070 3074 3076 3078 3081 3085 3087 3091 3093
3166 3165 3164 3163 3161 3159 3157 3154 3152 3149 3145 3141 3137 3133 3128 3124 3121 3117 3115 3114 3115 3112 3106 3102 3099 3094 3090 3086 3082 3079 3077 3076 3075 3075 3074 3073 3074 3074 3075 3077 3076 3079 3083 3086 3088 3091 3094
3166 3165 3163 3162 3161 3159 3157 3154 3152 3148 3145 3141 3137 3133 3129 3124 3121 3117 3115 3113 3112 3112 3108 3104 3100 3097 3094 3090 3087 3083 3080 3079 3078 3078 3078 3079 3078 3077 3077 3079 3079 3080 3083 3086 3089 3092 3095
3166 3165 3163 3162 3160 3158 3156 3154 3152 3148 3145 3141 3138 3134 3129 3124 3120 3118 3115 3113 3111 3110 3109 3106 3102 3099 3097 3094 3090 3087 3085 3082 3081 3082 3081 3081 3082 3081 3081 3082 3082 3082 3084 3086 3089 3091 3095
3165 3163 3163 3161 3159 3158 3156 3153 3151 3148 3145 3141 3137 3134 3130 3125 3123 3118 3116 3113 3111 3110 3109 3109 3105 3103 3100 3096 3093 3090 3087 3087 3084 3084 3083 3084 3084 3084 3084 3084 3083 3083 3085 3087 3089 3091 3094
3163 3163 3161 3160 3158 3156 3154 3152 3150 3148 3145 3141 3137 3134 3131 3126 3122 3119 3117 3114 3112 3111 3111 3111 3107 3104 3101 3100 3098 3094 3091 3090 3088 3087 3088 3088 3087 3086 3086 3085 3084 3086 3087 3088 3090 3090 3093
3161 3161 3160 3159 3157 3155 3153 3151 3149 3147 3144 3141 3137 3134 3131 3128 3124 3120 3116 3114 3113 3115 3113 3112 3109 3106 3104 3101 3099 3097 3094 3094 3093 3091 3090 3089 3089 3089 3088 3086 3086 3087 3088 3090 3092 3093 3095
3158 3158 3158 3157 3155 3154 3151 3150 3147 3146 3144 3141 3138 3134 3131 3128 3125 3121 3117 3115 3116 3114 3117 3114 3110 3108 3105 3102 3100 3099 3096 3095 3094 3095 3092 3092 3092 3091 3090 3089 3089 3090 3091 3093 3096 3097 3096
3155 3155 3155 3154 3153 3152 3150 3148 3146 3144 3143 3140 3137 3134 3132 3128 3125 3122 3118 3117 3115 3115 3113 3112 3110 3109 3106 3104 3102 3101 3099 3097 3095 3095 3095 3095 3095 3093 3092 3092 3092 3092 3092 3094 3098 3099 3093
3152 3152 3151 3151 3150 3149 3148 3146 3144 3142 3141 3139 3137 3134 3131 3129 3126 3123 3122 3118 3116 3114 3113 3112 3110 3109 3107 3105 3103 3101 3100 3098 3097 3096 3098 3096 3097 3096 3095 3094 3095 3094 3094 3096 3094 3093 3094
3147 3148 3148 3147 3147 3146 3145 3144 3142 3141 3139 3138 3136 3134 3132 3129 3127 3124 3122 3119 3117 3115 3113 3112 3111 3109 3108 3106 3105 3102 3100 3100 3099 3098 3096 3097 3097 3097 3096 3097 3097 3096 3097 3095 3093 3094 3092
3143 3143 3144 3144 3143 3143 3142 3141 3140 3139 3137 3136 3135 3133 3132 3129 3127 3125 3122 3120 3117 3115 3113 3113 3110 3109 3107 3106 3104 3103 3103 3102 3099 3098 3097 3096 3096 3096 3096 3096 3096 3096 3094 3093 3093 3091 3092
3136 3138 3138 3139 3139 3138 3138 3138 3138 3137 3136 3134 3132 3131 3130 3128 3127 3124 3122 3120 3118 3116 3114 3112 3111 3109 3107 3105 3105 3104 3103 3101 3100 3099 3098 3096 3096 3094 3093 3093 3092 3091 3092 3092 3091 3090 3088
3129 3131 3132 3133 3134 3134 3134 3134 3134 3134 3133 3132 3130 3129 3127 3126 3125 3123 3121 3119 3117 3115 3113 3112 3110 3109 3107 3106 3105 3103 3102 3101 3099 3098 3098 3097 3095 3093 3092 3094 3091 3090 3089 3089 3089 3090 3088
3122 3124 3125 3126 3128 3129 3129 3129 3129 3130 3130 3129 3127 3126 3125 3123 3122 3121 3118 3117 3115 3113 3112 3110 3110 3108 3107 3106 3104 3102 3101 3100 3099 3098 3097 3096 3094 3094 3093 3091 3091 3089 3089 3089 3089 3089 3086
3113 3116 3118 3119 3120 3123 3123 3124 3124 3125 3125 3125 3123 3122 3121 3120 3118 3116 3115 3114 3112 3111 3110 3109 3108 3107 3106 3105 3103 3102 3100 3099 3098 3096 3096 3095 3093 3091 3090 3088 3087 3086 3086 3086 3085 3085 3085
3104 3107 3109 3111 3113 3114 3117 3117 3118 3119 3119 3120 3119 3118 3115 3115 3113 3112 3110 3109 3108 3107 3107 3106 3105 3104 3104 3103 3102 3100 3099 3097 3096 3095 3095 3094 3091 3089 3086 3085 3084 3082 3082 3081 3081 3082 3082
3093 3096 3099 3101 3104 3107 3109 3111 3112 3113 3114 3113 3113 3112 3111 3109 3107 3107 3104 3104 3103 3103 3103 3102 3102 3100 3100 3100 3099 3098 3097 3095 3093 3092 3091 3091 3090 3088 3084 3084 3082 3079 3077 3077 3079 3079 3080
3081 3085 3088 3092 3094 3098 3101 3102 3104 3106 3107 3107 3106 3106 3105 3103 3101 3100 3099 3097 3098 3099 3099 3099 3098 3098 3097 3096 3095 3094 3093 3091 3090 3089 3088 3088 3088 3088 3084 3082 3082 3076 3076 3076 3076 3075 3076
3069 3074 3077 3081 3084 3089 3092 3094 3096 3099 3100 3100 3099 3100 3098 3096 3095 3094 3094 3093 3092 3093 3094 3094 3095 3094 3093 3093 3092 3090 3089 3087 3085 3085 3084 3085 3086 3086 3085 3082 3078 3073 3072 3073 3073 3074 3073
3056 3063 3065 3068 3075 3079 3082 3085 3088 3091 3092 3092 3092 3092 3091 3091 3090 3088 3089 3089 3089 3088 3089 3090 3090 3090 3090 3089 3089 3088 3086 3085 3084 3082 3082 3082 3083 3085 3083 3084 3079 3072 3071 3071 3071 3071 3069
3043 3049 3054 3058 3062 3066 3071 3075 3079 3081 3083 3084 3085 3086 3085 3085 3085 3084 3085 3084 3084 3084 3084 3086 3086 3087 3086 3085 3086 3085 3084 3083 3082 3081 3080 3079 3079 3079 3079 3079 3072 3068 3068 3069 3071 3073 3069
3030 3037 3043 3047 3052 3055 3059 3065 3068 3071 3074 3075 3077 3078 3079 3078 3079 3079 3079 3080 3079 3080 3081 3081 3083 3082 3082 3082 3082 3081 3079 3078 3077 3076 3076 3076 3076 3075 3074 3074 3068 3064 3065 3067 3066 3064 3063
3016 3024 3031 3036 3040 3045 3050 3054 3059 3062 3065 3067 3068 3070 3070 3072 3073 3072 3072 3073 3074 3074 3076 3076 3078 3078 3078 3078 3078 3077 3076 3074 3072 3072 3072 3072 3071 3070 3070 3065 3063 3061 3060 3060 3058 3058 3056